Location: Unspecified
(48.2082°N, 0.0000°E)
Time: 07:28:35
(UTC+00:00)

Altair - Pass Details

Date: 18 June 2019
Orbit: 1501 x 1683 km, 47.2° (Epoch: 19 July)

Event Time Altitude Azimuth Distance (km) Brightness Sun altitude
Rises 04:48:54 0° 289° (WNW) 4,913 9.7 6.1°
Reaches altitude 10° 04:53:19 10° 272° (W) 3,937 9.2 6.8°
Maximum altitude 04:59:33 19° 234° (SW) 3,300 8.7 7.7°
Drops below altitude 10° 05:05:48 10° 195° (SSW) 3,932 9.3 8.6°
Sets 05:10:15 0° 178° (S) 4,903 9.9 9.3°
